Date String (YYYY-MM-DD hh:mm:ss) UTC,Instrument flags,Ambient pressure (hPa),Sample flow (lpm),Bypass flow (lpm),Sample temperature (°C),Ambient temperature (°C),ASC tube jacket temperature (°C),LED temperature (°C),Box temperature (°C),Sample RH (%),Span deviation,Mass concentration (μg/m³),Mass concentration (μg/m³),Mass concentration (μg/m³)
DateTimeUTC,F1_M11,P_M11,Q1_M11,Q2_M11,T1_M11,T2_M11,T3_M11,T4_M11,T5_M11,U1_M11,ZSPAN_M11,X0_M11,X2_M11,X1_M11
2022-05-21 03:00:00,,0826.5,5.01,0.00,22.6,21.9,00.0,31.5,24.5,20.3,0000.0,0003.16,0003.19,0003.16
2022-05-21 03:01:00,,0826.6,5.00,0.00,22.6,21.8,00.0,31.5,24.5,20.3,0000.0,0003.16,0003.18,0003.14
2022-05-21 03:02:00,,0826.5,4.99,0.00,22.6,21.8,00.0,31.5,24.5,20.3,0000.0,0003.15,0003.17,0003.14
2022-05-21 03:03:00,,0826.8,5.00,0.00,22.6,21.8,00.0,31.5,24.5,20.3,0000.0,0003.17,0003.17,0003.13
2022-05-21 03:04:00,,0826.6,5.01,0.00,22.6,21.7,00.0,31.5,24.5,20.3,0000.0,0003.20,0003.18,0003.14
2022-05-21 03:05:00,,0826.6,4.99,0.00,22.6,21.7,00.0,31.5,24.5,20.4,0000.0,0003.21,0003.19,0003.13
2022-05-21 03:06:00,,0826.7,5.00,0.00,22.6,21.7,00.0,31.5,24.4,20.4,0000.0,0003.21,0003.18,0003.12
2022-05-21 03:07:00,,0826.7,5.01,0.00,22.6,21.7,00.0,31.5,24.4,20.4,0000.0,0003.24,0003.20,0003.14
2022-05-21 03:08:00,,0826.6,5.00,0.00,22.5,21.6,00.0,31.5,24.4,20.4,0000.0,0003.21,0003.21,0003.16
2022-05-21 03:09:00,,0826.7,4.99,0.00,22.5,21.6,00.0,31.5,24.4,20.4,0000.0,0003.17,0003.21,0003.17
2022-05-21 03:10:00,,0826.7,4.99,0.00,22.5,21.6,00.0,31.5,24.4,20.4,0000.0,0003.20,0003.23,0003.19
2022-05-21 03:11:00,,0826.7,5.00,0.00,22.5,21.6,00.0,31.5,24.4,20.5,0000.0,0003.20,0003.24,0003.19
2022-05-21 03:12:00,,0826.7,5.00,0.00,22.5,21.5,00.0,31.5,24.3,20.5,0000.0,0003.23,0003.26,0003.21
2022-05-21 03:13:00,,0826.7,4.99,0.00,22.5,21.5,00.0,31.5,24.3,20.5,0000.0,0003.29,0003.30,0003.24
2022-05-21 03:14:00,,0826.8,5.00,0.00,22.5,21.5,00.0,31.5,24.3,20.5,0000.0,0003.31,0003.33,0003.28
2022-05-21 03:15:00,,0826.8,5.00,0.00,22.4,21.4,00.0,31.5,24.3,20.5,0000.0,0003.32,0003.36,0003.31
2022-05-21 03:16:00,,0826.8,5.01,0.00,22.4,21.4,00.0,31.5,24.2,20.5,0000.0,0003.36,0003.40,0003.37
2022-05-21 03:17:00,,0826.8,5.01,0.00,22.4,21.4,00.0,31.5,24.2,20.6,0000.0,0003.40,0003.45,0003.42
2022-05-21 03:18:00,,0826.8,5.00,0.00,22.4,21.4,00.0,31.4,24.2,20.6,0000.0,0003.45,0003.48,0003.44
2022-05-21 03:19:00,,0826.7,5.01,0.00,22.4,21.4,00.0,31.4,24.2,20.6,0000.0,0003.52,0003.50,0003.46
2022-05-21 03:20:00,,0826.7,5.01,0.00,22.4,21.3,00.0,31.4,24.2,20.6,0000.0,0003.53,0003.51,0003.47
2022-05-21 03:21:00,,0826.8,5.00,0.00,22.4,21.3,00.0,31.4,24.2,20.6,0000.0,0003.54,0003.51,0003.47
2022-05-21 03:22:00,,0826.9,5.00,0.00,22.3,21.3,00.0,31.4,24.1,20.6,0000.0,0003.57,0003.50,0003.46
2022-05-21 03:23:00,,0826.9,5.00,0.00,22.3,21.3,00.0,31.4,24.1,20.6,0000.0,0003.55,0003.49,0003.44
2022-05-21 03:24:00,,0826.9,5.00,0.00,22.3,21.3,00.0,31.4,24.1,20.6,0000.0,0003.47,0003.44,0003.40
2022-05-21 03:25:00,,0826.9,5.01,0.00,22.3,21.2,00.0,31.4,24.1,20.7,0000.0,0003.44,0003.39,0003.35
2022-05-21 03:26:00,,0826.9,4.99,0.00,22.3,21.2,00.0,31.4,24.1,20.7,0000.0,0003.42,0003.35,0003.31
2022-05-21 03:27:00,,0827.0,5.00,0.00,22.3,21.2,00.0,31.3,24.1,20.7,0000.0,0003.38,0003.30,0003.25
2022-05-21 03:28:00,,0826.9,5.01,0.00,22.3,21.2,00.0,31.3,24.1,20.7,0000.0,0003.36,0003.26,0003.19
2022-05-21 03:29:00,,0827.0,4.99,0.00,22.3,21.2,00.0,31.3,24.1,20.7,0000.0,0003.25,0003.19,0003.13
2022-05-21 03:30:00,,0826.9,5.01,0.00,22.3,21.2,00.0,31.3,24.1,20.7,0000.0,0003.15,0003.16,0003.08
2022-05-21 03:31:00,,0827.0,5.01,0.00,22.3,21.2,00.0,31.3,24.1,20.7,0000.0,0003.22,0003.14,0003.04
2022-05-21 03:32:00,,0827.1,5.00,0.00,22.3,21.2,00.0,31.3,24.1,20.7,0000.0,0003.31,0003.14,0002.99
2022-05-21 03:33:00,,0826.9,5.00,0.00,22.2,21.2,00.0,31.3,24.1,20.7,0000.0,0003.26,0003.11,0002.93
2022-05-21 03:34:00,,0827.1,5.00,0.00,22.2,21.2,00.0,31.3,24.1,20.7,0000.0,0003.21,0003.07,0002.89
2022-05-21 03:35:00,,0827.1,5.01,0.00,22.2,21.2,00.0,31.3,24.1,20.7,0000.0,0003.23,0003.05,0002.86
2022-05-21 03:36:00,,0827.1,4.98,0.00,22.2,21.2,00.0,31.3,24.1,20.8,0000.0,0003.18,0003.01,0002.82
2022-05-21 03:37:00,,0827.2,5.02,0.00,22.2,21.2,00.0,31.3,24.0,20.8,0000.0,0003.10,0002.95,0002.78
2022-05-21 03:38:00,,0827.2,4.99,0.00,22.2,21.2,00.0,31.3,24.0,20.8,0000.0,0003.07,0002.93,0002.76
2022-05-21 03:39:00,,0827.2,5.00,0.00,22.2,21.1,00.0,31.2,24.0,20.8,0000.0,0002.97,0002.87,0002.72
2022-05-21 03:40:00,,0827.4,5.00,0.00,22.2,21.2,00.0,31.2,24.1,20.8,0000.0,0002.91,0002.81,0002.68
2022-05-21 03:41:00,,0827.4,5.00,0.00,22.3,21.6,00.0,31.2,24.3,20.7,0000.0,0002.86,0002.76,0002.62
2022-05-21 03:42:00,,0827.4,4.99,0.00,22.4,22.1,00.0,31.2,24.6,20.6,0000.0,0002.73,0002.67,0002.55
2022-05-21 03:43:00,,0827.4,5.00,0.00,22.5,22.3,00.0,31.3,24.7,20.5,0000.0,0002.60,0002.59,0002.50
2022-05-21 03:44:00,,0827.3,5.02,0.00,22.6,22.3,00.0,31.3,24.7,20.4,0000.0,0002.49,0002.52,0002.45
2022-05-21 03:45:00,,0827.2,5.00,0.00,22.6,22.3,00.0,31.4,24.6,20.4,0000.0,0002.47,0002.48,0002.40
2022-05-21 03:46:00,,0827.2,4.99,0.00,22.6,22.3,00.0,31.4,24.6,20.3,0000.0,0002.39,0002.41,0002.35
2022-05-21 03:47:00,,0827.2,5.00,0.00,22.6,22.2,00.0,31.4,24.6,20.3,0000.0,0002.33,0002.36,0002.30
2022-05-21 03:48:00,,0827.2,4.99,0.00,22.6,22.2,00.0,31.4,24.6,20.3,0000.0,0002.26,0002.29,0002.24
2022-05-21 03:49:00,,0827.2,5.00,0.00,22.7,22.1,00.0,31.5,24.6,20.3,0000.0,0002.20,0002.22,0002.17
2022-05-21 03:50:00,,0827.2,5.01,0.00,22.7,22.0,00.0,31.5,24.6,20.3,0000.0,0002.19,0002.18,0002.11
2022-05-21 03:51:00,,0827.2,4.98,0.00,22.7,22.0,00.0,31.5,24.6,20.3,0000.0,0002.15,0002.13,0002.06
2022-05-21 03:52:00,,0827.2,5.00,0.00,22.7,22.0,00.0,31.5,24.6,20.3,0000.0,0002.16,0002.11,0002.02
2022-05-21 03:53:00,,0827.2,5.01,0.00,22.7,21.9,00.0,31.5,24.6,20.2,0000.0,0002.17,0002.10,0002.01
2022-05-21 03:54:00,,0827.2,5.00,0.00,22.7,21.9,00.0,31.5,24.6,20.2,0000.0,0002.09,0002.06,0001.98
2022-05-21 03:55:00,,0827.2,4.99,0.00,22.7,21.9,00.0,31.6,24.6,20.2,0000.0,0002.11,0002.06,0001.97
2022-05-21 03:56:00,,0827.2,5.00,0.00,22.7,21.9,00.0,31.6,24.6,20.2,0000.0,0002.06,0002.03,0001.96
2022-05-21 03:57:00,,0827.3,5.02,0.00,22.7,21.9,00.0,31.6,24.6,20.2,0000.0,0002.05,0002.04,0001.97
2022-05-21 03:58:00,,0827.2,5.00,0.00,22.7,21.9,00.0,31.6,24.7,20.2,0000.0,0002.07,0002.06,0001.99
2022-05-21 03:59:00,,0827.3,5.00,0.00,22.7,21.9,00.0,31.6,24.6,20.2,0000.0,0002.09,0002.07,0002.00
